Showing default

GONETS M 13 (M23), 40554

Orbit data source: Space-Track

GONETS M 13 (M23), 40554 is a payload satellite owned by Gonets (CIS) in LEO that was launched on Tue, 31 Mar 2015 UTC via an ROKOT launch vehicle from the Plesetsk Missile And Space Complex (PKMTR). Payload-class satellites include a variety of spacecraft equipped with specific instruments for various scientific and technological missions. These include communications satellites like Starlink; space stations such as the ISS; scientific satellites like the Hubble; Earth observation satellites from companies like Planet Labs, Umbra, and HawkEye 360; GPS; miniature CubeSats for education and research; and military/defense satellites.

Loading next visibility...
Identifier
40554, 2015-020C
Orbit
LEO
Country
Flag of CISCIS
Related business
Manufacturer
Resehetnev ISS
Mission
Operational Civil Communications
Bus & Motor
STRELA-3M, Unknown motor
Mass
225 kg wet, 225 kg dry
Launch date (UTC)
2015-03-31 (10 years ago)
Launch vehicle
ROKOT
Launch site
Plesetsk Missile And Space Complex (PKMTR)
Object type
Payload
Rocket body
Debris
Shape & HBR
Cyl + 1 Ant, 3.5 m
Radar Cross Section
1.798 m², Large (>1 m²)

Expand to show TLE details & history
Last TLE update: 13 hours ago

TLE from 13 hours ago
0 GONETS M 13 (M23)
1 40554U 15020C   25260.30695799  .00000017  00000-0  54102-4 0  9993
2 40554  82.4882 200.7356 0012407 203.7829 156.2679 12.42857572474802
Epoch: 2025-09-17T07:22Z
TLE epoch observation values (Epoch: 2025-09-17T07:22:01.17Z)
Latitude
0.00002°
Longitude
93.74594°
Altitude
1,506.157 km
Speed
7.108 km/s
True Right ascension
13h 22m 56s
True Declination
0° 00' 00"
Sunlit
Object was in daylight at epoch
Visualization orbit readout
Latitude
Unknown
Longitude
Unknown
Altitude
Unknown
Speed
Unknown
Apparent Right ascension
Unknown
Apparent Declination
Unknown
Sunlit
N/A
Visualization observer readout
Local Sidereal Time
13:12:19
Azimuth
Unknown
Elevation
Unknown
Doppler factor
Unknown
Orbital elements
Apogee altitude
1,501.629 km
Perigee altitude
1,482.1 km
Semi-major axis
7,870.002 km
Eccentricity
0.00124
Inclination
82.4882°
RAAN
200.7356°
Arg. of periapsis
203.7829°
True anomaly
156.32504°
Mean anomaly
156.2679°
Eccentric anomaly
156.29648°
Mean motion
3.10872 °/min
Orbital period
115.8 mins
BSTAR
0.000054102
Loading maneuver chart data...
Computing Atmospheric mass density...
Loading historical data...
Loading historical data...
Loading historical data...
Loading historical data...
Loading historical data...
Loading historical data...
Loading historical data...

Documentation

Showing up to 5 results
|